Regional Weather Roundup
Issued by NWS

Home | Current Version | Previous Version | Text Only | Print | Product List | Glossary Off
Versions: 1 2 3 4 5 6 7 8 9 10 11 12 13 14 15 16 17 18 19 20 21 22 23 24 25 26 27 28 29 30 31 32 33 34 35 36 37 38 39 40 41 42 43 44 45 46 47 48 49 50

000
ASUS43 KDMX 202007
RWRIA

WEATHER ROUNDUP FOR IOWA
NATIONAL WEATHER SERVICE DES MOINES IA
200 PM CST THU NOV 20 2014

NOTE: "FAIR" INDICATES FEW OR NO CLOUDS BELOW 12,000 FEET WITH NO
SIGNIFICANT WEATHER AND/OR OBSTRUCTIONS TO VISIBILITY.

* - THESE STATIONS ARE NOT NWS STATIONS...THUS NOT UNDER NWS
QUALITY CONTROL.  THEY ALSO DO NOT REPORT WEATHER SUCH
AS PRECIPITATION OR FOG.

IAZ001>003-012>014-020>022-031>034-043>046-202100-
   NORTHWEST IOWA

CITY           SKY/WX    TMP DP  RH WIND       PRES   REMARKS
CARROLL *      SUNNY     25  12  58 NW14      30.19S WCI  13
CHEROKEE *     SUNNY     23  14  68 NW12      30.19S WCI  12
DENISON *      SUNNY     25  14  63 NW8       30.17F WCI  16
LE MARS *      SUNNY     25  12  58 NW10      30.20S WCI  15
ORANGE CITY *  SUNNY     23  12  63 NW12      30.17S WCI  12
SHELDON *      SUNNY     19  10  68 NW15      30.17S WCI   5
SIOUX CITY     SUNNY     28  14  55 W8        30.20F WCI  20
SPENCER        SUNNY     20  11  68 NW12      30.18S WCI   8
STORM LAKE *   SUNNY     21  12  68 NW12      30.18R WCI   9
$$

IAZ055>058-069>071-079>083-090>094-202100-
   SOUTHWEST IOWA

CITY           SKY/WX    TMP DP  RH WIND       PRES   REMARKS
ATLANTIC *     PTSUNNY   28  16  59 NW8G15    30.20S WCI  20
AUDUBON *      SUNNY     27  12  54 NW8       30.19S WCI  18
CLARINDA *     CLOUDY    30  19  64 VRB7      30.23F WCI  23
COUNCIL BLFS * CLOUDY    28  18  64 N8        30.18F WCI  20
CRESTON *      MOSUNNY   27  16  63 NW12      30.19F WCI  16
HARLAN  *      MOSUNNY   28  18  64 NW13      30.23S WCI  18
LAMONI         SUNNY     28  17  63 W13       30.20F WCI  17
RED OAK *      CLOUDY    28  18  64 N6        30.21F WCI  22
SHENANDOAH *   CLOUDY    32  19  59 VRB5      30.22F WCI  27
$$

IAZ047>049-059>061-072>074-084-202100-
   CENTRAL IOWA

CITY           SKY/WX    TMP DP  RH WIND       PRES   REMARKS
AMES           SUNNY     24  12  60 NW13      30.20R WCI  12
ANKENY *       SUNNY     27  14  59 W10G18    30.21R WCI  17
CHARITON *     SUNNY     28  14  54 W6G12     30.19S WCI  22
DES MOINES     MOSUNNY   29  13  51 NW9       30.20S WCI  20
GRINNELL*      SUNNY     27  14  59 W12       30.18S WCI  16
KNOXVILLE *    SUNNY     28  10  47 NW14      30.18S WCI  17
MARSHALLTOWN   SUNNY     24  13  62 NW13      30.18R WCI  12
PELLA *        SUNNY     30  14  51 NW12      30.20S WCI  21
PERRY *          N/A     27  16  63 W12       30.20R WCI  16
$$

IAZ004>006-015-016-023>025-035-036-202100-
   NORTH CENTRAL IOWA

CITY           SKY/WX    TMP DP  RH WIND       PRES   REMARKS
ALGONA *       SUNNY     19  10  68 NW10      30.18S WCI   8
CLARION *      SUNNY     19  10  68 NW13      30.18S WCI   7
ESTHERVILLE    SUNNY     18  10  71 NW12      30.17S WCI   5
FORT DODGE *   SUNNY     23  10  58 NW9       30.19S WCI  13
MASON CITY     SUNNY     19   9  65 W17       30.17R WCI   4
FOREST CITY *  SUNNY     21  14  73 W12       30.16S WCI   9
IOWA FALLS *     N/A     23  12  63 NW15G21   30.19R WCI  10
$$

IAZ007>011-017>019-026>030-037>042-050>054-066-202100-
   NORTHEAST IOWA

CITY           SKY/WX    TMP DP  RH WIND       PRES   REMARKS
CEDAR RAPIDS   MOSUNNY   24  13  62 NW18      30.17R WCI  10
CHARLES CITY * SUNNY     21   7  53 NW17      30.16R WCI   7
CLINTON *      SUNNY     27   7  43 W20G26    30.17R WCI  13
DECORAH *      SUNNY     18   5  57 NW15G21   30.12R WCI   3
DUBUQUE        SUNNY     21   9  59 W17       30.12R WCI   7
MONTICELLO *   MOSUNNY   23  10  58 NW15G22   30.15S WCI  10
OELWEIN *      SUNNY     19   9  63 NW16G23   30.15R WCI   5
WATERLOO       SUNNY     23  10  57 NW15      30.17R WCI  10
$$

IAZ064-065-067-068-078-202100-
   EAST CENTRAL IOWA

CITY           SKY/WX    TMP DP  RH WIND       PRES   REMARKS
DAVENPORT      MOSUNNY   28   9  44 W21G26    30.16R WCI  15
IOWA CITY      PTSUNNY   27  13  55 W13G23    30.20R WCI  16
MT. PLEASANT * SUNNY     30  12  47 W15       30.19S WCI  19
MUSCATINE *    SUNNY     30  10  43 NW15      30.20R WCI  19
QUAD CITIES    SUNNY     29   9  43 W16G24    30.16S WCI  17
$$

IAZ062-063-075>077-085>089-095>099-202100-
   SOUTHEAST IOWA

CITY           SKY/WX    TMP DP  RH WIND       PRES   REMARKS
BURLINGTON     SUNNY     31  13  47 W12       30.18S WCI  22
FAIRFIELD *    SUNNY     28  12  50 W15       30.19S WCI  17
FORT MADISON * SUNNY     34  16  47 NW13G18   30.19F WCI  25
KEOKUK *       SUNNY     34  12  40 W12G18    30.19S WCI  25
OSKALOOSA *      N/A     28  14  54 NW13      30.19S WCI  18
CENTERVILLE *  SUNNY     32  14  47 W8        30.20S WCI  25
OTTUMWA        SUNNY     29  12  49 W10       30.19S WCI  20
WASHINGTON *   SUNNY     30  12  47 NW13G22   30.19R WCI  20
$$

ABBREVIATIONS USED IN REMARKS
   TC - TEMPERATURES IN CELSIUS
  WCI - WIND CHILL INDEX
   HX - HEAT INDEX
  VSB - VISIBILITY
$$




USA.gov is the U.S. government's official web portal to all federal, state and local government web resources and services.